Location: Poughquag
(41.6090°N, 73.6820°W)
Time: 14:58:13
(UTC-04:00)

Vanguard 3 - Pass Details

Date: 02 June 2020
Orbit: 510 x 3261 km, 33.3° (Epoch: 05 July)

Event Time Altitude Azimuth Distance (km) Brightness Sun altitude
Exits shadow 00:13:01 18° 130° (SE) 5,229 10.8 -25.5°
Drops below altitude 10° 00:20:27 10° 104° (ESE) 5,481 11.1 -25.7°
Sets 00:26:03 0° 88° (E) 6,063 11.6 -25.8°
